KAZSAT-3

Last updated on Jan. 18, 2020, 4:38 a.m. UTC

1 39728U 14023B   20017.81716306  .00000056  00000-0  00000+0 0  9991
2 39728   0.0260 130.9214 0000927 181.5503 156.9090  1.00274629 20957
UTC
Height (km)
Latitude
Longitude
Inclination
Orbital Period
UTC large
Height (km)
Speed (km/s)
/
Latitude / Longitude
Inclination (degrees)
Orbital Period (minutes)
Azimuth
Elevation
Range (km)
Doppler Factor
iOS Compass Heading
iOS Angle

Next 30 passes for location: Hong Kong

Rise time Rise Azimuth (degrees) Set time Set Azimuth (degrees) Duration Max altitude (degrees)

No matching passes for this satellites